Date String (YYYY-MM-DD hh:mm:ss) UTC,Instrument flags,Ambient pressure (hPa),Sample flow (lpm),Bypass flow (lpm),Sample temperature (°C),Ambient temperature (°C),ASC tube jacket temperature (°C),LED temperature (°C),Box temperature (°C),Sample RH (%),Span deviation,Mass concentration (μg/m³),Mass concentration (μg/m³),Mass concentration (μg/m³)
DateTimeUTC,F1_M11,P_M11,Q1_M11,Q2_M11,T1_M11,T2_M11,T3_M11,T4_M11,T5_M11,U1_M11,ZSPAN_M11,X0_M11,X2_M11,X1_M11
2022-08-07 12:00:00,,0829.5,5.00,0.00,30.8,27.8,00.0,39.4,32.0,34.4,0000.0,0012.46,0006.15,0005.22
2022-08-07 12:01:00,,0829.6,4.99,0.00,30.7,27.7,00.0,39.3,31.9,34.6,0000.0,0012.55,0006.21,0005.24
2022-08-07 12:02:00,,0829.5,5.00,0.00,30.5,27.7,00.0,39.3,31.8,34.6,0000.0,0012.76,0006.20,0005.26
2022-08-07 12:03:00,,0829.5,5.01,0.00,30.5,27.8,00.0,39.3,31.8,34.7,0000.0,0012.08,0006.20,0005.27
2022-08-07 12:04:00,,0829.6,4.99,0.00,30.4,27.9,00.0,39.2,31.8,34.9,0000.0,0011.68,0006.19,0005.26
2022-08-07 12:05:00,,0829.5,5.01,0.00,30.4,28.1,00.0,39.2,31.9,35.0,0000.0,0012.20,0006.26,0005.26
2022-08-07 12:06:00,,0829.6,4.99,0.00,30.4,28.2,00.0,39.2,31.9,34.9,0000.0,0011.86,0006.27,0005.26
2022-08-07 12:07:00,,0829.6,5.01,0.00,30.4,28.3,00.0,39.2,31.9,34.9,0000.0,0011.72,0006.24,0005.24
2022-08-07 12:08:00,,0829.6,5.00,0.00,30.4,28.4,00.0,39.1,31.9,34.9,0000.0,0011.57,0006.21,0005.25
2022-08-07 12:09:00,,0829.6,5.00,0.00,30.4,28.5,00.0,39.1,31.9,34.8,0000.0,0011.66,0006.20,0005.25
2022-08-07 12:10:00,,0829.6,5.00,0.00,30.4,28.5,00.0,39.1,32.0,34.9,0000.0,0011.70,0006.16,0005.24
2022-08-07 12:11:00,,0829.6,4.99,0.00,30.4,28.6,00.0,39.1,32.0,34.8,0000.0,0011.58,0006.12,0005.23
2022-08-07 12:12:00,,0829.5,5.00,0.00,30.4,28.7,00.0,39.1,32.0,34.9,0000.0,0011.29,0006.08,0005.23
2022-08-07 12:13:00,,0829.5,5.01,0.00,30.4,28.7,00.0,39.1,32.0,34.8,0000.0,0011.85,0006.11,0005.24
2022-08-07 12:14:00,,0829.5,5.01,0.00,30.4,28.7,00.0,39.1,32.0,34.8,0000.0,0011.88,0006.12,0005.25
2022-08-07 12:15:00,,0829.5,5.01,0.00,30.4,28.8,00.0,39.1,32.0,34.8,0000.0,0011.89,0006.13,0005.24
2022-08-07 12:16:00,,0829.6,5.00,0.00,30.4,28.8,00.0,39.1,32.0,34.8,0000.0,0011.53,0006.05,0005.24
2022-08-07 12:17:00,,0829.5,5.00,0.00,30.4,28.9,00.0,39.1,32.0,34.7,0000.0,0011.31,0006.00,0005.24
2022-08-07 12:18:00,,0829.6,5.00,0.00,30.4,28.9,00.0,39.1,32.0,34.8,0000.0,0011.75,0005.99,0005.25
2022-08-07 12:19:00,,0829.5,5.00,0.00,30.4,28.9,00.0,39.1,32.0,34.7,0000.0,0012.11,0006.02,0005.25
2022-08-07 12:20:00,,0829.5,5.00,0.00,30.4,28.9,00.0,39.1,32.1,34.7,0000.0,0012.10,0006.02,0005.24
2022-08-07 12:21:00,,0829.5,5.00,0.00,30.4,29.0,00.0,39.1,32.1,34.7,0000.0,0012.02,0006.04,0005.25
2022-08-07 12:22:00,,0829.6,5.00,0.00,30.4,29.0,00.0,39.1,32.1,34.6,0000.0,0012.34,0006.05,0005.27
2022-08-07 12:23:00,,0829.6,4.99,0.00,30.4,29.0,00.0,39.1,32.1,34.7,0000.0,0012.42,0006.03,0005.28
2022-08-07 12:24:00,,0829.8,5.01,0.00,30.4,29.0,00.0,39.1,32.1,34.8,0000.0,0011.80,0006.02,0005.29
2022-08-07 12:25:00,,0829.6,5.00,0.00,30.4,29.0,00.0,39.1,32.1,34.8,0000.0,0011.11,0006.04,0005.31
2022-08-07 12:26:00,,0829.6,5.00,0.00,30.4,29.1,00.0,39.1,32.1,34.7,0000.0,0011.30,0006.08,0005.34
2022-08-07 12:27:00,,0829.7,5.01,0.00,30.4,29.1,00.0,39.2,32.2,34.6,0000.0,0011.32,0006.11,0005.36
2022-08-07 12:28:00,,0829.8,5.00,0.00,30.4,29.1,00.0,39.1,32.1,34.7,0000.0,0011.17,0006.12,0005.37
2022-08-07 12:29:00,,0829.8,5.00,0.00,30.4,28.6,00.0,39.1,32.0,34.9,0000.0,0010.84,0006.13,0005.39
2022-08-07 12:30:00,,0829.8,5.00,0.00,30.3,28.0,00.0,39.1,31.9,35.0,0000.0,0010.86,0006.13,0005.40
2022-08-07 12:31:00,,0829.8,5.00,0.00,30.3,27.7,00.0,39.0,31.7,35.1,0000.0,0010.78,0006.14,0005.41
2022-08-07 12:32:00,,0829.8,5.00,0.00,30.3,27.7,00.0,39.0,31.8,35.2,0000.0,0010.70,0006.15,0005.41
2022-08-07 12:33:00,,0829.9,5.00,0.00,30.5,27.8,00.0,39.0,31.9,34.6,0000.0,0010.58,0006.19,0005.41
2022-08-07 12:34:00,,0829.9,5.01,0.00,30.7,27.9,00.0,39.0,32.0,34.3,0000.0,0010.51,0006.21,0005.42
2022-08-07 12:35:00,,0829.9,5.00,0.00,30.7,28.1,00.0,39.0,32.0,34.1,0000.0,0010.60,0006.23,0005.41
2022-08-07 12:36:00,,0829.9,5.00,0.00,30.8,28.2,00.0,39.0,31.9,34.2,-000.2,0010.44,0006.20,0005.39
2022-08-07 12:37:00,,0829.9,5.00,0.00,30.8,28.3,00.0,39.0,31.9,34.2,0000.0,0010.25,0006.17,0005.37
2022-08-07 12:38:00,,0829.8,5.01,0.00,30.8,28.4,00.0,39.1,31.9,34.2,0000.0,0010.33,0006.18,0005.36
2022-08-07 12:39:00,,0829.8,5.00,0.00,30.8,28.5,00.0,39.1,32.0,34.2,0000.0,0011.22,0006.19,0005.35
2022-08-07 12:40:00,,0829.9,5.00,0.00,30.7,28.6,00.0,39.1,32.0,34.2,0000.0,0011.19,0006.20,0005.34
2022-08-07 12:41:00,,0830.0,5.01,0.00,30.7,28.6,00.0,39.1,32.0,34.2,0000.0,0010.80,0006.18,0005.33
2022-08-07 12:42:00,,0830.0,5.00,0.00,30.7,28.7,00.0,39.2,32.0,34.3,0000.0,0010.91,0006.17,0005.32
2022-08-07 12:43:00,,0829.9,5.00,0.00,30.7,28.7,00.0,39.2,32.0,34.4,0000.0,0011.22,0006.16,0005.33
2022-08-07 12:44:00,,0829.9,4.99,0.00,30.7,28.8,00.0,39.2,32.1,34.5,0000.0,0011.16,0006.16,0005.35
2022-08-07 12:45:00,,0829.9,5.00,0.00,30.7,28.8,00.0,39.2,32.1,34.5,0000.0,0010.97,0006.12,0005.34
2022-08-07 12:46:00,,0830.0,5.00,0.00,30.7,28.9,00.0,39.2,32.1,34.5,0000.0,0011.52,0006.13,0005.35
2022-08-07 12:47:00,,0830.0,5.00,0.00,30.7,28.9,00.0,39.2,32.1,34.6,0000.0,0011.80,0006.12,0005.35
2022-08-07 12:48:00,,0830.1,5.00,0.00,30.7,28.9,00.0,39.2,32.1,34.7,0000.0,0011.83,0006.13,0005.36
2022-08-07 12:49:00,,0830.1,5.01,0.00,30.7,29.0,00.0,39.3,32.1,34.7,0000.0,0011.96,0006.11,0005.37
2022-08-07 12:50:00,,0830.1,5.00,0.00,30.7,29.0,00.0,39.3,32.1,34.8,0000.0,0011.52,0006.12,0005.39
2022-08-07 12:51:00,,0830.1,5.01,0.00,30.7,29.0,00.0,39.3,32.2,35.1,0000.0,0011.51,0006.13,0005.39
2022-08-07 12:52:00,,0830.1,4.98,0.00,30.9,29.1,00.0,39.3,32.3,34.6,0000.0,0011.61,0006.16,0005.40
2022-08-07 12:53:00,,0830.1,5.01,0.00,31.0,29.1,00.0,39.3,32.4,34.4,0000.0,0011.57,0006.19,0005.40
2022-08-07 12:54:00,,0830.1,5.00,0.00,31.0,29.1,00.0,39.3,32.4,34.3,0000.0,0011.16,0006.20,0005.40
2022-08-07 12:55:00,,0830.1,4.99,0.00,31.1,29.2,00.0,39.3,32.4,34.2,0000.0,0011.22,0006.21,0005.38
2022-08-07 12:56:00,,0830.1,5.01,0.00,31.1,29.1,00.0,39.4,32.3,34.2,0000.0,0011.45,0006.23,0005.36
2022-08-07 12:57:00,,0830.1,5.00,0.00,31.1,28.5,00.0,39.3,32.1,34.3,0000.0,0011.01,0006.26,0005.37
2022-08-07 12:58:00,,0830.1,4.99,0.00,31.0,27.8,00.0,39.3,32.0,34.4,0000.0,0010.86,0006.27,0005.38
2022-08-07 12:59:00,,0830.1,4.99,0.00,30.9,27.6,00.0,39.3,31.9,34.4,0000.0,0011.27,0006.30,0005.38
